Weather History for Oakey, QU

Change the Weather History Date:

Saturday, December 21, 2013

  Actual Average Record
Temperature  
Mean Temperature 72 °F -  
Max Temperature 91 °F - - ()
Min Temperature 54 °F - - ()
Cooling Degree Days 8    
Growing Degree Days 22 (Base 50)    
Moisture  
Dew Point 53 °F    
Average Humidity 50    
Maximum Humidity 88    
Minimum Humidity 11    
Precipitation  
Precipitation 0.00 in - - ()
Sea Level Pressure  
Sea Level Pressure 30.00 in    
Wind  
Wind Speed 7 mph ()    
Max Wind Speed 14 mph    
Max Gust Speed -    
Visibility 6.2 miles    
Events      
T = Trace of Precipitation, MM = Missing Value Source: Averaged Metar Reports

Daily Weather History Graph

Daily Weather History Graph

Search for Another Location

Airport:

Trip Planner

Search our weather history database for the weather conditions in past years. The results will help you decide how hot, cold, wet, or windy it might be!

Date:

Astronomy

Dec. 21, 2013 Rise Set
Actual Time 4:54 AM EST 6:47 PM EST
Civil Twilight 4:28 AM EST 7:13 PM EST
Nautical Twilight 3:56 AM EST 7:45 PM EST
Astronomical Twilight 3:22 AM EST 8:19 PM EST
Moon 9:17 PM EST (12/21) 7:59 AM EST (12/21)
Length of Visible Light 14h 45m
Length of Day
13h 52m
Waning Gibbous, 88% of the Moon is Illuminated
Dec 21
Waning Gibbous
Dec 25
Last Quarter
Jan 1
New
Jan 8
First Quarter
Jan 16
Full

Hourly Weather History & Observations

Time (EST) Temp. Heat Index Dew Point Humidity Pressure Visibility Wind Dir Wind Speed Gust Speed Precip Events Conditions
12:00 AM 64 °F - 54 °F 63% 30.03 in - East 5.8 mph - -  
12:00 AM 64.4 °F - 53.6 °F 68% 30.06 in 6.2 mi East 5.8 mph - N/A   Unknown
1:00 AM 59 °F - 53 °F 73% 30.02 in - East 8.1 mph - -  
1:00 AM 59.0 °F - 51.8 °F 77% 30.06 in 6.2 mi East 8.1 mph - N/A   Unknown
2:00 AM 59.0 °F - 53.6 °F 82% 30.06 in 6.2 mi East 8.1 mph - N/A   Unknown
3:00 AM 57 °F - 53 °F 81% 30.02 in - East 6.9 mph - -  
3:00 AM 57.2 °F - 53.6 °F 88% 30.06 in 6.2 mi East 6.9 mph - N/A   Unknown
4:00 AM 56 °F - 53 °F 84% 30.03 in - East 5.8 mph - -  
4:00 AM 55.4 °F - 51.8 °F 88% 30.06 in 6.2 mi East 5.8 mph - N/A   Unknown
5:00 AM 55.4 °F - 51.8 °F 88% 30.06 in 6.2 mi ESE 2.3 mph - N/A   Unknown
6:00 AM 61 °F - 56 °F 80% 30.04 in - East 5.8 mph - -  
6:00 AM 60.8 °F - 57.2 °F 88% 30.09 in 6.2 mi East 5.8 mph - N/A   Unknown
7:00 AM 68 °F - 58 °F 64% 30.05 in - ENE 4.6 mph - -  
7:00 AM 68.0 °F - 59.0 °F 73% 30.09 in 6.2 mi ENE 4.6 mph - N/A   Unknown
8:00 AM 71.6 °F - 57.2 °F 60% 30.09 in 6.2 mi North 5.8 mph - N/A   Unknown
9:00 AM 76 °F - 55 °F 38% 30.02 in - NE 5.8 mph - -  
9:00 AM 75.2 °F - 55.4 °F 50% 30.06 in 6.2 mi NE 5.8 mph - N/A   Unknown
10:00 AM 79 °F - 54 °F 31% 30.01 in - SSW 4.6 mph - -  
10:00 AM 78.8 °F - 53.6 °F 42% 30.06 in 6.2 mi SSW 4.6 mph - N/A   Unknown
11:00 AM 82.4 °F 81.7 °F 55.4 °F 39% 30.04 in 6.2 mi WNW 6.9 mph - N/A   Unknown
12:00 PM 83 °F - 52 °F 24% 29.96 in - West 5.8 mph - -  
12:00 PM 84.2 °F - 51.8 °F 33% 30.01 in 6.2 mi West 5.8 mph - N/A   Unknown
1:00 PM 88 °F - 53 °F 21% 29.93 in - ESE 8.1 mph - -  
1:00 PM 87.8 °F 85.7 °F 53.6 °F 31% 29.98 in 6.2 mi ESE 8.1 mph - N/A   Unknown
2:00 PM 89.6 °F - 46.4 °F 22% 29.95 in 6.2 mi East 12.7 mph - N/A   Unknown
3:00 PM 90 °F - 43 °F 11% 29.89 in - ESE 13.8 mph - -  
3:00 PM 89.6 °F - 42.8 °F 20% 29.95 in 6.2 mi ESE 13.8 mph - N/A   Unknown
4:00 PM 91 °F - 51 °F 16% 29.88 in - East 12.7 mph - -  
4:00 PM 91.4 °F - 50.0 °F 24% 29.92 in 6.2 mi East 12.7 mph - N/A   Unknown
5:00 PM 89.6 °F - 50.0 °F 26% 29.95 in 6.2 mi ENE 13.8 mph - N/A   Unknown
6:00 PM 86 °F - 49 °F 18% 29.90 in - NE 12.7 mph - -  
6:00 PM 86.0 °F - 48.2 °F 27% 29.95 in 6.2 mi NE 12.7 mph - N/A   Unknown
7:00 PM 80 °F - 48 °F 22% 29.92 in - NE 10.4 mph - -  
7:00 PM 78.8 °F - 48.2 °F 34% 29.98 in 6.2 mi NE 10.4 mph - N/A   Unknown
8:00 PM 75.2 °F - 48.2 °F 38% 29.98 in 6.2 mi NE 1.2 mph - N/A   Unknown
9:00 PM 72 °F - 56 °F 47% 29.97 in - East 10.4 mph - -  
9:00 PM 71.6 °F - 55.4 °F 57% 30.01 in 6.2 mi East 10.4 mph - N/A   Unknown
10:00 PM 71 °F - 59 °F 56% 29.97 in - ENE 12.7 mph - -  
10:00 PM 71.6 °F - 59.0 °F 64% 30.01 in 6.2 mi ENE 12.7 mph - N/A   Unknown
11:00 PM 69.8 °F - 59.0 °F 68% 30.04 in 6.2 mi East 10.4 mph - N/A   Unknown